Weather past 2 weeks in Saint-Pierre, Saint Pierre and Miquelon

Now
64 °F

Drizzle. Fog.


Feels Like: 64 °F
Forecast: 60 / 63 °F
Wind: 10 mph from Southwest

Location: Saint-Pierre

Current Time: Jul 25, 2014 at 4:35:13 PM

Latest Report: Jul 25, 2014 at 4:00 PM


Visibility: 0 mi

Pressure: 29.74 "Hg

Humidity: 94%

Dew point: 63 °F

Location of Saint-PierreLocation

Historic Weather in Saint-Pierre — Graph

°F

Saint-Pierre temperature yesterday

Maximum temperature yesterday: 64 °F (at 9:00 AM)
Minimum temperature yesterday: 61 °F (at 6:00 AM)
Average temperature yesterday: 63 °F

Past Weeks' High & Low Weather Summary

 TemperatureHumidityPressure
High73 °F (Jul 19, 2:00 PM)100% (Jul 10, 3:00 PM)30.27 "Hg (Jul 10, 3:00 PM)
Low52 °F (Jul 13, 6:00 AM)44% (Jul 20, 5:00 PM)29.74 "Hg (Jul 25, 3:00 PM)
Average62 °F89%30.04 "Hg
* Reported Jul 10 3:00 PM — Jul 25 3:00 PM, Saint-Pierre, Weather by CustomWeather, © 2014

Note: Actual official high and low records may vary slightly from our data, if they occured in-between our weather recording intervals... More about our weather records

Advertising

Saint-Pierre weather history for previous 24 hours

 ConditionsComfort  
Time TempWeatherWind HumidityBarometerVisibility
3:00 PM
Jul 25
64 °FFog.9 mph100%29.74 "Hg1 mi
2:00 PM68 °FFog.8 mph94%29.77 "Hg1 mi
1:00 PM66 °FFog.8 mph100%29.77 "Hg1 mi
12:00 PM64 °FFog.9 mph100%29.77 "Hg1 mi
11:00 AM63 °FFog.9 mph100%29.77 "Hg0 mi
10:00 AM63 °FDrizzle. Fog.7 mph100%29.77 "Hg1 mi
9:00 AM63 °FDrizzle. Fog.5 mph100%29.77 "Hg1 mi
8:00 AM63 °FLight rain. Fog.2 mph100%29.77 "Hg2 mi
7:00 AM61 °FPartly cloudy.6 mph100%29.77 "Hg4 mi
6:00 AM63 °FPartly cloudy.12 mph100%29.77 "Hg4 mi
12:00 AM61 °FPassing clouds.3 mph100%29.86 "Hg5 mi
11:00 PM
Jul 24
61 °FFog.8 mph100%29.86 "Hg1 mi
10:00 PM61 °FFog.5 mph100%29.86 "Hg1 mi
9:00 PM61 °FFog.5 mph100%29.86 "Hg2 mi
7:00 PM63 °FFog.7 mph94%29.86 "Hg1 mi
6:00 PM64 °FBroken clouds.6 mph88%29.86 "HgN/A
5:00 PM64 °FPartly sunny.12 mph94%29.86 "HgN/A
4:00 PM64 °FBroken clouds.15 mph94%29.86 "HgN/A
Weather by CustomWeather, © 2014

See weather overviewHow to use our weather pages